This is the latest recevied weather packets stored in our database for station/object KB1RMA-4. If no packets are shown the sender has not sent any weather packets the latest 10 day(s).
| Time | Temp. | Humidity | Pressure | Rain* | Wind** | Luminosity | Snow |
|---|---|---|---|---|---|---|---|
| 1787500549 | 20° C | 88% | 1011.4 hPa | 0 mm | - | 119 W/m² | - |
| 1787500249 | 20° C | 88% | 1011.2 hPa | 0 mm | - | 206 W/m² | - |
| 1787499943 | 20° C | 89% | 1011.4 hPa | 0 mm | - | 234 W/m² | - |
| 1787499638 | 20° C | 89% | 1011.3 hPa | 0 mm | - | 190 W/m² | - |
| 1787499337 | 20° C | 89% | 1011.6 hPa | 0 mm | - | 100 W/m² | - |
| 1787499034 | 20° C | 88% | 1011.7 hPa | 0 mm | - | 142 W/m² | - |
| 1787498731 | 20° C | 88% | 1011.8 hPa | 0 mm | - | 147 W/m² | - |
| 1787498427 | 20° C | 88% | 1011.7 hPa | 0 mm | - | 145 W/m² | - |
| 1787498124 | 20° C | 89% | 1011.8 hPa | 0 mm | - | 235 W/m² | - |
| 1787497819 | 20° C | 89% | 1011.9 hPa | 0 mm | - | 198 W/m² | - |
| 1787497515 | 19.44° C | 90% | 1011.9 hPa | 0 mm | - | 148 W/m² | - |
| 1787497214 | 19.44° C | 90% | 1012.2 hPa | 0 mm | - | 88 W/m² | - |
| 1787496914 | 19.44° C | 89% | 1012.1 hPa | 0 mm | - | 95 W/m² | - |
| 1787496609 | 20° C | 90% | 1012.1 hPa | 0 mm | - | 130 W/m² | - |
| 1787496304 | 19.44° C | 90% | 1012 hPa | 0 mm | - | 149 W/m² | - |
| 1787496002 | 19.44° C | 90% | 1011.9 hPa | 0 mm | - | 149 W/m² | - |
| 1787495698 | 19.44° C | 91% | 1011.8 hPa | 0 mm | - | 154 W/m² | - |
| 1787495394 | 19.44° C | 91% | 1011.8 hPa | 0 mm | - | 124 W/m² | - |
| 1787495091 | 19.44° C | 91% | 1011.8 hPa | 0 mm | - | 82 W/m² | - |
| 1787494784 | 19.44° C | 91% | 1012.1 hPa | 0 mm | - | 62 W/m² | - |
| 1787494479 | 19.44° C | 91% | 1012 hPa | 0 mm | - | 84 W/m² | - |
| 1787494175 | 19.44° C | 91% | 1011.9 hPa | 0 mm | - | 122 W/m² | - |
| 1787493871 | 19.44° C | 91% | 1012.2 hPa | 0 mm | - | 113 W/m² | - |
| 1787493567 | 19.44° C | 91% | 1012.1 hPa | 0 mm | - | 129 W/m² | - |
| 1787493262 | 19.44° C | 91% | 1012 hPa | 0 mm | - | 143 W/m² | - |
* Rain latest hour (hover to see other rain measurements)
** Current wind speed in m/s (hover to see current wind gust speed)